{"data":{"norad_id":68789,"intl_designator":"2026-086Z","name":"STARLINK-37413","alt_names":[],"object_type":"PAYLOAD","status":"ACTIVE","operator":null,"country":"US","launch_date":"2026-04-19","launch_site_code":"AFWTR","launch_vehicle":null,"mission":null,"orbit_class":"UNKNOWN","rcs_meters":null,"size_class":null,"mass_kg":null,"dimensions":null,"purposes":["comms"],"wikipedia_slug":null,"has_3d_model":false,"image_url":null,"decayed_at":null,"tle_current":{"epoch":"2026-09-18T09:09:23.925888Z","epoch_age_seconds":223181,"freshness":"STALE","line1":"1 68789U 26086Z   26261.38152692  .00022536  00000+0  69816-3 0  9993","line2":"2 68789  97.2847 296.8903 0001536  92.5610 267.5808 15.33451273 23366","mean_motion":15.33451273,"eccentricity":0.0001536,"inclination_deg":97.2847,"raan_deg":296.8903,"arg_perigee_deg":92.561,"mean_anomaly_deg":267.5808,"bstar":0.00069816,"rev_number":2336,"period_min":93.905820507933,"perigee_km":464.47332409917,"apogee_km":466.5756969152,"semimajor_km":6843.6615105072,"source":"CELESTRAK","updated_at":"2026-09-20T09:00:44.004297Z"}}}